This demonstration page uses our WeatherBlox Daily Observations layout. Learn more.

Left ArrowRight Arrow

39.01783, -85.05884

Hourly Observations for April 30, 2018

Temp ( °F °C ) Dew Point ( °F °C ) Humidity (%) Winds ( mph kmh ) Pressure ( in mb ) Visibility ( mi km ) Precip ( " mm )
12:52 am 00:52 Clear 40 4.4 26 -3.3 58 58 N N/A 30.28 1026 10 16 N/A
1:52 am 01:52 Clear 43 6.1 27 -2.8 53 53 N N/A 30.27 1025 10 16 N/A
2:52 am 02:52 Clear 40 4.4 26 -3.3 58 58 S 3 6 30.26 1025 10 16 N/A
3:52 am 03:52 Clear 40 4.4 29 -1.7 65 65 N N/A 30.26 1025 10 16 N/A
4:52 am 04:52 Clear 40 4.4 28 -2.2 63 63 N N/A 30.27 1025 10 16 N/A
5:52 am 05:52 Clear 40 4.4 28 -2.2 63 63 N N/A 30.28 1025 10 16 N/A
6:52 am 06:52 Sunny 37 2.8 27 -2.8 67 67 N N/A 30.30 1026 10 16 N/A
7:52 am 07:52 Sunny 39 3.9 33 0.6 79 79 N N/A 30.32 1027 10 16 N/A
8:52 am 08:52 Sunny 50 10 33 0.6 52 52 SSW 6 9 30.33 1027 10 16 N/A
9:52 am 09:52 Sunny 56 13.3 33 0.6 42 42 SSW 7 11 30.33 1027 10 16 N/A
10:52 am 10:52 Sunny 59 15 29 -1.7 32 32 SW 7 11 30.32 1027 10 16 N/A
11:52 am 11:52 Sunny 61 16.1 29 -1.7 30 30 S 7 11 30.32 1027 10 16 N/A
12:52 pm 12:52 Sunny 64 17.8 31 -0.6 29 29 SSE 12 19 30.30 1026 10 16 N/A
1:52 pm 13:52 Sunny 67 19.4 35 1.7 31 31 S 9 15 30.27 1025 10 16 N/A
2:52 pm 14:52 Sunny 69 20.6 32 undefined 25 25 S 9 15 30.24 1024 10 16 N/A
3:52 pm 15:52 Sunny 69 20.6 25 -3.9 19 19 S 7 11 30.21 1023 10 16 N/A
4:52 pm 16:52 Sunny 70 21.1 25 -3.9 18 18 SSW 6 9 30.18 1022 10 16 N/A
5:52 pm 17:52 Sunny 71 21.7 26 -3.3 19 19 WSW 5 7 30.17 1022 10 16 N/A
6:52 pm 18:52 Sunny 69 20.6 30 -1.1 23 23 SSW 10 17 30.16 1021 10 16 N/A
7:52 pm 19:52 Sunny 68 20 28 -2.2 22 22 SW 3 6 30.15 1021 10 16 N/A
8:52 pm 20:52 Mostly Clear 66 18.9 23 -5 19 19 SW 5 7 30.14 1021 10 16 N/A
9:52 pm 21:52 Clear 55 12.8 31 -0.6 40 40 S 3 6 30.15 1021 10 16 N/A
10:52 pm 22:52 Clear 56 13.3 32 undefined 40 40 S 7 11 30.14 1021 10 16 N/A
11:52 pm 23:52 Clear 57 13.9 33 0.6 41 41 S 6 9 30.13 1020 10 16 N/A

Powered by AerisWeather